Location: McFarlands Corners
(41.4117°N, 81.3382°W)
Time: 06:05:12
(UTC+00:00)

Tiros 1 - Pass Details

Date: 22 February 2026
Orbit: 618 x 649 km, 48.4° (Epoch: 5 March)

Event Time Altitude Azimuth Distance (km) Brightness Sun altitude
Rises 19:44:03 0° 283° (WNW) 2,888 10.8 31.1°
Reaches altitude 10° 19:47:37 10° 255° (WSW) 1,976 10.6 30.7°
Maximum altitude 19:49:32 13° 229° (SW) 1,807 11.1 30.5°
Drops below altitude 10° 19:51:28 10° 204° (SSW) 1,970 11.1 30.3°
Sets 19:55:01 0° 175° (S) 2,871 11.1 29.8°
